This demonstration page uses our WeatherBlox Daily Observations layout. Learn more.

Hourly Observations for January 24, 2017

Temp ( °F °C ) Dew Point ( °F °C ) Humidity (%) Winds ( mph kmh ) Pressure ( in mb ) Visibility ( mi km ) Precip ( " mm )
12:54 am 00:54 Cloudy with Mist and Fog 30 -1.1 28 -2.2 92 92 E 7 11 29.8 1009 6 9.65604 0 0
1:54 am 01:54 Cloudy 31 -0.6 29 -1.7 92 92 E 8 13 29.8 1009 7 11.26538 0 0
2:54 am 02:54 Cloudy with Mist and Fog 31 -0.6 29 -1.7 92 92 E 12 19 29.8 1009 6 9.65604 0 0
3:54 am 03:54 Cloudy with Mist and Fog 31 -0.6 29 -1.7 92 92 ESE 10 17 29.79 1009 5 8.0467 0 0
4:54 am 04:54 Cloudy with Mist and Fog 31 -0.6 29 -1.7 92 92 E 10 17 29.77 1008 5 8.0467 0 0
5:37 am 05:37 Cloudy with Mist and Fog 31 -0.6 29 -1.7 92 92 E 9 15 29.77 1008 4 6.43736 0 0
5:54 am 05:54 Cloudy with Mist and Fog 31 -0.6 30 -1.1 96 96 E 9 15 29.75 1007 4 6.43736 0 0
6:54 am 06:54 Cloudy with Mist and Fog 31 -0.6 30 -1.1 96 96 E 14 22 29.74 1007 3 4.82802 0 0
7:54 am 07:54 Cloudy with Mist and Fog 30 -1.1 29 -1.7 96 96 E 14 22 29.72 1006 4 6.43736 0 0
7:56 am 07:56 Cloudy with Mist and Fog 30 -1 28 -2 93 93 E 16 26 29.74 1007 2.5 4.02335 0 0
8:54 am 08:54 Cloudy with Mist and Fog 31 -0.6 29 -1.7 92 92 E 14 22 29.72 1006 2.5 4.02335 0 0
9:01 am 09:01 Cloudy with Mist and Fog 31 -0.6 29 -1.7 92 92 ENE 17 28 29.74 1007 4 6.43736 0 0
9:16 am 09:16 Cloudy with Mist and Fog 30 -1 30 -1 100 100 ENE 16 26 29.71 1006 4 6.43736 0 0
9:54 am 09:54 Cloudy with Mist and Fog 32 0 29 -1.7 88 88 E 15 24 29.68 1005 4 6.43736 0 0
10:54 am 10:54 Cloudy 33 0.6 29 -1.7 85 85 E 15 24 29.67 1005 8 12.87472 0 0
11:54 am 11:54 Cloudy 33 0.6 29 -1.7 85 85 E 21 33 29.6 1002 9 14.48406 0 0
12:24 pm 12:24 Cloudy 34 1 28 -2 81 81 E 12 19 29.62 1003 10 16.0934 0 0
12:54 pm 12:54 Cloudy 34 1.1 29 -1.7 82 82 E 15 24 29.58 1002 10 16.0934 0 0
1:54 pm 13:54 Cloudy 35 1.7 29 -1.7 78 78 E 15 24 29.53 1000 10 16.0934 0 0
2:54 pm 14:54 Cloudy 35 1.7 29 -1.7 78 78 E 14 22 29.54 1000 9 14.48406 0 0
3:18 pm 15:18 Cloudy 35 1.7 29 -1.7 78 78 E 8 13 29.59 1002 9 14.48406 0 0
3:54 pm 15:54 Cloudy 35 1.7 30 -1.1 82 82 E 10 17 29.56 1001 9 14.48406 0 0
4:37 pm 16:37 Cloudy with Light Rain 34 1.1 31 -0.6 89 89 ENE 7 11 29.59 1002 2 3.21868 0 0.0254
4:54 pm 16:54 Cloudy with Light Wintry Mix 34 1.1 32 0 92 92 ENE 9 15 29.56 1001 2 3.21868 0.01 0.254
5:09 pm 17:09 Cloudy with Light Wintry Mix 33 0.6 32 0 96 96 NE 12 19 29.59 1002 3 4.82802 0 0.0254
5:16 pm 17:16 Cloudy with Mist and Fog 33 0.6 32 0 96 96 NE 10 17 29.59 1002 2 3.21868 0 0.0254
5:27 pm 17:27 Cloudy with Mist and Fog 33 0.6 32 0 96 96 NNE 7 11 29.59 1002 2 3.21868 0 0.0254
5:35 pm 17:35 Cloudy with Mist and Fog 33 0.6 32 0 96 96 NNE 7 11 29.59 1002 2 3.21868 0 0.0254
5:54 pm 17:54 Cloudy with Mist and Fog 33 0.6 32 0 96 96 NNE 8 13 29.57 1001 2 3.21868 0 0.0254
6:54 pm 18:54 Cloudy with Mist and Fog 33 0.6 32 0 96 96 NNE 8 13 29.59 1002 2 3.21868 0 0
7:54 pm 19:54 Cloudy with Light Snow 33 0.6 32 0 96 96 NNE 8 13 29.6 1002 1.25 2.011675 0.01 0.254
8:29 pm 20:29 Cloudy with Light Snow 33 0.6 32 0 96 96 N 8 13 29.62 1003 2.5 4.02335 0.01 0.254
8:54 pm 20:54 Cloudy with Mist and Fog 33 0.6 32 0 96 96 N 8 13 29.6 1002 2.5 4.02335 0.01 0.254
9:54 pm 21:54 Cloudy with Mist and Fog 33 0.6 31 -0.6 92 92 N 12 19 29.61 1003 2.5 4.02335 0 0
10:01 pm 22:01 Cloudy with Mist and Fog 32 0 31 -0.6 96 96 N 10 17 29.62 1003 3 4.82802 0 0
10:21 pm 22:21 Cloudy with Mist and Fog 32 0 30 -1 93 93 NNW 8 13 29.62 1003 2.5 4.02335 0 0
10:54 pm 22:54 Cloudy with Mist and Fog 32 0 31 -0.6 96 96 NNW 8 13 29.63 1004 1.75 2.816345 0 0
11:09 pm 23:09 Cloudy with Mist and Fog 32 0 31 -0.6 96 96 NNW 8 13 29.68 1005 2 3.21868 0 0
11:42 pm 23:42 Cloudy with Mist and Fog 32 0 30 -1 93 93 NNW 8 13 29.62 1003 3 4.82802 0 0
11:54 pm 23:54 Cloudy with Mist and Fog 32 0 31 -0.6 96 96 NNW 9 15 29.63 1003 4 6.43736 0 0

Powered by AerisWeather